Location: Melbourne
(37.8170°S, 144.9670°E)
Time: 18:32:14
(UTC+10:00)

ADEOS Rocket - Visible Passes

Search period start: 02 September 2015 00:00
Search period end: 12 September 2015 00:00
Orbit: 859 x 1307 km, 98.7° (Epoch: 02 September)

Date Brightness Start Highest point End Pass type
(mag) Time Alt. Az. Time Alt. Az. Time Alt. Az.
02 Sep 4.4 05:47:57 10° NE 05:53:21 41° ESE 05:59:23 10° S visible
02 Sep 3.7 18:45:45 10° SSE 18:53:12 53° E 19:00:48 10° N visible
02 Sep 5.1 20:31:44 10° S 20:38:22 33° WSW 20:44:59 10° NW visible
03 Sep 5.7 05:01:16 10° E 05:05:01 18° ESE 05:09:14 10° SSE visible
03 Sep 3.9 19:42:15 10° S 19:49:53 67° WSW 19:57:35 10° NNW visible
03 Sep 6.2 21:30:46 10° SSW 21:34:14 13° WSW 21:37:15 10° W visible
04 Sep 4.1 05:55:22 10° NE 06:01:00 49° ESE 06:07:18 10° S visible
04 Sep 3.6 18:53:27 10° SSE 19:01:04 61° E 19:08:46 10° N visible
04 Sep 5.3 20:39:43 10° S 20:46:06 29° WSW 20:52:23 10° WNW visible
05 Sep 5.6 05:08:18 10° ENE 05:12:36 21° ESE 05:17:26 10° SSE visible
05 Sep 4.2 19:50:06 10° S 19:57:40 59° WSW 20:05:15 10° NNW visible
05 Sep 6.3 21:39:29 10° SW 21:41:52 11° SW 21:43:43 10° WSW visible
06 Sep 3.9 06:02:51 10° NNE 06:08:40 58° ESE 06:15:12 10° S visible
06 Sep 3.6 19:01:10 10° SSE 19:08:55 69° E 19:16:40 10° N visible
06 Sep 5.5 20:47:44 10° S 20:53:49 25° WSW 20:59:44 10° WNW visible
07 Sep 5.4 05:15:27 10° ENE 05:20:13 25° ESE 05:25:33 10° S visible
07 Sep 4.4 19:57:58 10° S 20:05:27 52° WSW 20:12:52 10° NW visible
08 Sep 6.2 04:31:10 10° ESE 04:32:08 10° SE 04:33:35 10° SE visible
08 Sep 3.6 19:08:56 10° SSE 19:16:47 79° ENE 19:24:32 10° N visible
08 Sep 5.7 20:55:47 10° SSW 21:01:31 22° WSW 21:06:59 10° WNW visible
09 Sep 5.2 05:22:41 10° ENE 05:27:50 29° ESE 05:33:37 10° S visible
09 Sep 4.1 18:20:37 10° SSE 18:27:41 37° E 18:34:45 10° NNE visible
09 Sep 4.6 20:05:52 10° S 20:13:14 46° WSW 20:20:26 10° NW visible
10 Sep 6.1 04:37:11 10° E 04:39:42 13° SE 04:42:42 10° SSE visible
10 Sep 3.6 19:16:43 10° SSE 19:24:37 89° ENE 19:32:20 10° NNW visible
10 Sep 5.9 21:03:55 10° SSW 21:09:13 19° WSW 21:14:09 10° W visible
11 Sep 5.0 05:29:58 10° NE 05:35:28 34° ESE 05:41:39 10° S visible
11 Sep 3.9 18:28:16 10° SSE 18:35:36 43° E 18:42:50 10° NNE visible
11 Sep 4.9 20:13:47 10° S 20:20:59 40° WSW 20:27:57 10° NW visible
